This is the latest recevied weather packets stored in our database for station/object KB8TTR. If no packets are shown the sender has not sent any weather packets the latest 10 day(s).
| Time | Temp. | Humidity | Pressure | Rain* | Wind** | Luminosity | Snow |
|---|---|---|---|---|---|---|---|
| 1788050040 | 22.78° C | 77% | 1020.5 hPa | 0 mm | - | 0 W/m² | - |
| 1788049738 | 22.78° C | 77% | 1020.6 hPa | 0 mm | - | 0 W/m² | - |
| 1788049433 | 23.33° C | 77% | 1020.7 hPa | 0 mm | - | 0 W/m² | - |
| 1788049129 | 23.33° C | 76% | 1020.9 hPa | 0 mm | - | 1 W/m² | - |
| 1788048829 | 23.89° C | 75% | 1020.8 hPa | 0 mm | - | 1 W/m² | - |
| 1788048529 | 23.89° C | 74% | 1020.9 hPa | 0 mm | - | 2 W/m² | - |
| 1788048227 | 24.44° C | 70% | 1020.8 hPa | 0 mm | - | 4 W/m² | - |
| 1788047924 | 24.44° C | 70% | 1020.8 hPa | 0 mm | - | 6 W/m² | - |
| 1788047619 | 25° C | 68% | 1020.8 hPa | 0 mm | - | 11 W/m² | - |
| 1788047319 | 25° C | 68% | 1021 hPa | 0 mm | - | 20 W/m² | - |
| 1788047014 | 25° C | 66% | 1020.9 hPa | 0 mm | - | 25 W/m² | - |
| 1788046708 | 25° C | 65% | 1020.8 hPa | 0 mm | - | 26 W/m² | - |
| 1788046408 | 25.56° C | 64% | 1020.9 hPa | 0 mm | - | 33 W/m² | - |
| 1788046106 | 25.56° C | 64% | 1020.8 hPa | 0 mm | - | 40 W/m² | - |
| 1788045801 | 26.11° C | 63% | 1021 hPa | 0 mm | - | 49 W/m² | - |
| 1788045497 | 26.11° C | 62% | 1020.8 hPa | 0 mm | - | 63 W/m² | - |
| 1788045192 | 26.11° C | 59% | 1020.9 hPa | 0 mm | - | 53 W/m² | - |
| 1788044887 | 26.11° C | 60% | 1021 hPa | 0 mm | - | 53 W/m² | - |
| 1788044581 | 26.67° C | 58% | 1020.9 hPa | 0 mm | - | 53 W/m² | - |
| 1788044279 | 26.67° C | 56% | 1020.8 hPa | 0 mm | - | 69 W/m² | - |
| 1788043977 | 26.67° C | 58% | 1021.3 hPa | 0 mm | - | 75 W/m² | - |
| 1788043671 | 26.67° C | 57% | 1021.2 hPa | 0 mm | - | 91 W/m² | - |
| 1788043366 | 26.67° C | 58% | 1021.1 hPa | 0 mm | - | 94 W/m² | - |
| 1788043066 | 26.67° C | 59% | 1021.4 hPa | 0 mm | - | 96 W/m² | - |
| 1788042761 | 26.67° C | 59% | 1021.3 hPa | 0 mm | - | 110 W/m² | - |
* Rain latest hour (hover to see other rain measurements)
** Current wind speed in m/s (hover to see current wind gust speed)